Time,TemperatureF,DewpointF,PressureIn,WindDirection,WindDirectionDegrees,WindSpeedMPH,WindSpeedGustMPH,Humidity,HourlyPrecipIn,Conditions,Clouds,dailyrainin,SoftwareType,DateUTC
2013-11-18 00:00:00,44.0,-99.9,-100.00,West,278,6.0,12.0,-999,0.00,,,0.45,,2013-11-18 06:00:00,
2013-11-18 00:42:00,44.0,-99.9,-100.00,West,278,6.0,12.0,-999,0.00,,,0.45,,2013-11-18 06:42:00,
2013-11-18 00:52:00,44.0,-99.9,-100.00,West,278,6.0,12.0,-999,0.00,,,0.45,,2013-11-18 06:52:00,
2013-11-18 01:00:00,42.0,-99.9,-100.00,West,273,7.0,16.0,-999,0.00,,,0.23,,2013-11-18 07:00:00,
2013-11-18 01:42:00,42.0,-99.9,-100.00,West,273,7.0,16.0,-999,0.00,,,0.23,,2013-11-18 07:42:00,
2013-11-18 01:52:00,42.0,-99.9,-100.00,West,273,7.0,16.0,-999,0.00,,,0.23,,2013-11-18 07:52:00,
2013-11-18 02:00:00,41.0,-99.9,-100.00,West,275,8.0,18.0,-999,0.00,,,0.06,,2013-11-18 08:00:00,
2013-11-18 02:42:00,41.0,-99.9,-100.00,West,275,8.0,18.0,-999,0.00,,,0.06,,2013-11-18 08:42:00,
2013-11-18 02:52:00,41.0,-99.9,-100.00,West,275,8.0,18.0,-999,0.00,,,0.06,,2013-11-18 08:52:00,
2013-11-18 03:00:00,40.0,-99.9,-100.00,West,280,7.0,18.0,-999,0.00,,,0.06,,2013-11-18 09:00:00,
2013-11-18 03:43:00,40.0,-99.9,-100.00,West,280,7.0,18.0,-999,0.00,,,0.06,,2013-11-18 09:43:00,
2013-11-18 03:53:00,40.0,-99.9,-100.00,West,280,7.0,18.0,-999,0.00,,,0.06,,2013-11-18 09:53:00,
2013-11-18 04:00:00,40.0,-99.9,-100.00,WNW,300,6.0,18.0,-999,0.00,,,0.06,,2013-11-18 10:00:00,
2013-11-18 04:43:00,40.0,-99.9,-100.00,WNW,300,6.0,18.0,-999,0.00,,,0.06,,2013-11-18 10:43:00,
2013-11-18 04:53:00,40.0,-99.9,-100.00,WNW,300,6.0,18.0,-999,0.00,,,0.06,,2013-11-18 10:53:00,
2013-11-18 05:00:00,39.0,-99.9,-100.00,WNW,294,7.0,18.0,-999,0.00,,,0.06,,2013-11-18 11:00:00,
2013-11-18 05:42:00,39.0,-99.9,-100.00,WNW,294,7.0,18.0,-999,0.00,,,0.06,,2013-11-18 11:42:00,
2013-11-18 05:53:00,39.0,-99.9,-100.00,WNW,294,7.0,18.0,-999,0.00,,,0.06,,2013-11-18 11:53:00,
2013-11-18 06:00:00,38.0,-99.9,-100.00,WNW,298,9.0,22.0,-999,0.00,,,0.06,,2013-11-18 12:00:00,
2013-11-18 06:42:00,38.0,-99.9,-100.00,WNW,298,9.0,22.0,-999,0.00,,,0.06,,2013-11-18 12:42:00,
2013-11-18 06:52:00,38.0,-99.9,-100.00,WNW,298,9.0,22.0,-999,0.00,,,0.06,,2013-11-18 12:52:00,
2013-11-18 07:00:00,37.0,-99.9,-100.00,WNW,298,6.0,19.0,-999,0.00,,,0.06,,2013-11-18 13:00:00,
2013-11-18 07:42:00,37.0,-99.9,-100.00,WNW,298,6.0,19.0,-999,0.00,,,0.06,,2013-11-18 13:42:00,
2013-11-18 07:52:00,37.0,-99.9,-100.00,WNW,298,6.0,19.0,-999,0.00,,,0.06,,2013-11-18 13:52:00,
2013-11-18 08:00:00,36.0,-99.9,-100.00,WNW,292,8.0,15.0,-999,0.00,,,0.06,,2013-11-18 14:00:00,
2013-11-18 08:42:00,36.0,-99.9,-100.00,WNW,292,8.0,15.0,-999,0.00,,,0.06,,2013-11-18 14:42:00,
2013-11-18 08:52:00,36.0,-99.9,-100.00,WNW,292,8.0,15.0,-999,0.00,,,0.06,,2013-11-18 14:52:00,
2013-11-18 09:00:00,38.0,-99.9,-100.00,WNW,296,8.0,21.0,-999,0.00,,,0.06,,2013-11-18 15:00:00,
2013-11-18 09:43:00,38.0,-99.9,-100.00,WNW,296,8.0,21.0,-999,0.00,,,0.06,,2013-11-18 15:43:00,
2013-11-18 09:54:00,38.0,-99.9,-100.00,WNW,296,8.0,21.0,-999,0.00,,,0.06,,2013-11-18 15:54:00,
2013-11-18 10:00:00,40.0,-99.9,-100.00,WNW,296,8.0,15.0,-999,0.00,,,0.06,,2013-11-18 16:00:00,
2013-11-18 10:43:00,40.0,-99.9,-100.00,WNW,296,8.0,15.0,-999,0.00,,,0.06,,2013-11-18 16:43:00,
2013-11-18 10:53:00,40.0,-99.9,-100.00,WNW,296,8.0,15.0,-999,0.00,,,0.06,,2013-11-18 16:53:00,
2013-11-18 12:00:00,44.0,-99.9,-100.00,WNW,294,4.0,9.0,-999,0.00,,,0.01,,2013-11-18 18:00:00,
2013-11-18 12:52:00,44.0,-99.9,-100.00,WNW,294,4.0,9.0,-999,0.00,,,0.01,,2013-11-18 18:52:00,
2013-11-18 13:00:00,46.0,-99.9,-100.00,WNW,290,4.0,11.0,-999,0.00,,,0.01,,2013-11-18 19:00:00,
2013-11-18 14:00:00,47.0,-99.9,-100.00,WNW,297,5.0,10.0,-999,0.00,,,0.01,,2013-11-18 20:00:00,
2013-11-18 14:52:00,47.0,-99.9,-100.00,WNW,297,5.0,10.0,-999,0.00,,,0.01,,2013-11-18 20:52:00,
2013-11-18 15:00:00,47.0,-99.9,-100.00,NW,305,4.0,12.0,-999,0.00,,,0.01,,2013-11-18 21:00:00,
2013-11-18 15:54:00,47.0,-99.9,-100.00,NW,305,4.0,12.0,-999,0.00,,,0.01,,2013-11-18 21:54:00,
2013-11-18 16:00:00,46.0,-99.9,-100.00,WNW,297,5.0,11.0,-999,0.00,,,0.01,,2013-11-18 22:00:00,
2013-11-18 16:43:00,46.0,-99.9,-100.00,WNW,297,5.0,11.0,-999,0.00,,,0.01,,2013-11-18 22:43:00,
2013-11-18 16:53:00,46.0,-99.9,-100.00,WNW,297,5.0,11.0,-999,0.00,,,0.01,,2013-11-18 22:53:00,
2013-11-18 18:00:00,41.0,-99.9,-100.00,West,276,1.0,2.0,-999,0.00,,,0.00,,2013-11-19 00:00:00,
2013-11-18 18:42:00,41.0,-99.9,-100.00,West,276,1.0,2.0,-999,0.00,,,0.00,,2013-11-19 00:42:00,
2013-11-18 18:52:00,41.0,-99.9,-100.00,West,276,1.0,2.0,-999,0.00,,,0.00,,2013-11-19 00:52:00,
2013-11-18 19:00:00,40.0,-99.9,-100.00,SE,144,1.0,2.0,-999,0.00,,,0.00,,2013-11-19 01:00:00,
2013-11-18 19:42:00,40.0,-99.9,-100.00,SE,144,1.0,2.0,-999,0.00,,,0.00,,2013-11-19 01:42:00,
2013-11-18 19:52:00,40.0,-99.9,-100.00,SE,144,1.0,2.0,-999,0.00,,,0.00,,2013-11-19 01:52:00,
2013-11-18 20:00:00,39.0,-99.9,-100.00,East,101,1.0,2.0,-999,0.00,,,0.00,,2013-11-19 02:00:00,
2013-11-18 20:42:00,39.0,-99.9,-100.00,East,101,1.0,2.0,-999,0.00,,,0.00,,2013-11-19 02:42:00,
2013-11-18 20:52:00,39.0,-99.9,-100.00,East,101,1.0,2.0,-999,0.00,,,0.00,,2013-11-19 02:52:00,
2013-11-18 21:43:00,36.0,-99.9,-100.00,ESE,114,1.0,3.0,-999,0.00,,,0.00,,2013-11-19 03:43:00,
2013-11-18 21:54:00,36.0,-99.9,-100.00,ESE,114,1.0,3.0,-999,0.00,,,0.00,,2013-11-19 03:54:00,
2013-11-18 22:00:00,35.0,-99.9,-100.00,South,179,4.0,10.0,-999,0.00,,,0.00,,2013-11-19 04:00:00,
2013-11-18 22:43:00,35.0,-99.9,-100.00,South,179,4.0,10.0,-999,0.00,,,0.00,,2013-11-19 04:43:00,
2013-11-18 22:53:00,35.0,-99.9,-100.00,South,179,4.0,10.0,-999,0.00,,,0.00,,2013-11-19 04:53:00,
2013-11-18 23:00:00,32.0,-99.9,-100.00,South,187,3.0,7.0,-999,0.00,,,0.00,,2013-11-19 05:00:00,
2013-11-18 23:43:00,32.0,-99.9,-100.00,South,187,3.0,7.0,-999,0.00,,,0.00,,2013-11-19 05:43:00,
2013-11-18 23:53:00,32.0,-99.9,-100.00,South,187,3.0,7.0,-999,0.00,,,0.00,,2013-11-19 05:53:00,